QPF
0.00 0.00 0.00 0.00 0.00 0.00 0.00 0.00 0.00 0.00 0.00 0.00 0.00 0.00 0.00 0.00 0.00 0.00 0.00 0.00 0.00 0.00 0.00 0.00 0.00 0.00 0.00 0.00 0.00 0.00 0.00 0.02 0.06 0.03 0.08 0.09 0.00 0.07 0.06 0.00 0.00 0.00 0.00 0.00
0.00 0.00 0.00 0.00 0.00 0.00 0.00 0.00 0.00 0.00 0.00 0.00 0.00 0.00 0.00 0.00 0.00 0.00 0.00 0.00 0.00 0.00 0.01 0.00 0.00 0.00 0.00 0.00 0.00 0.00 0.02 0.06 0.07 0.06 0.06 0.02 0.05 0.02 0.01 0.00 0.00 0.00 0.00 0.00
0.00 0.00 0.00 0.00 0.00 0.00 0.00 0.00 0.00 0.00 0.00 0.00 0.00 0.01 0.00 0.00 0.00 0.00 0.00 0.00 0.00 0.00 0.00 0.00 0.00 0.00 0.00 0.00 0.00 0.00 0.00 0.07 0.10 0.05 0.14 0.09 0.16 0.09 0.18 0.04 0.00 0.00 0.00 0.00
0.00 0.00 0.00 0.00 0.00 0.00 0.00 0.00 0.00 0.00 0.00 0.00 0.00 0.00 0.01 0.00 0.00 0.00 0.00 0.00 0.00 0.00 0.00 0.00 0.00 0.00 0.00 0.00 0.00 0.00 0.00 0.00 0.00 0.06 0.04 0.02 0.05 0.04 0.01 0.00 0.00 0.00 0.00 0.00
0.00 0.00 0.00 0.00 0.00 0.00 0.00 0.00 0.00 0.00 0.00 0.00 0.00 0.00 0.07 0.06 0.00 0.00 0.00 0.00 0.00 0.00 0.00 0.00 0.00 0.00 0.00 0.00 0.00 0.00 0.00 0.00 0.00 0.04 0.06 0.08 0.04 0.01 0.01 0.00 0.01 0.01 0.01 0.00
0.00 0.00 0.00 0.00 0.00 0.00 0.00 0.00 0.00 0.00 0.00 0.00 0.00 0.00 0.07 0.01 0.00 0.00 0.00 0.00 0.00 0.00 0.00 0.00 0.00 0.00 0.05 0.00 0.00 0.00 0.00 0.00 0.00 0.12 0.05 0.01 0.00 0.05 0.07 0.03 0.07 0.02 0.00 0.00
0.00 0.00 0.00 0.00 0.00 0.00 0.00 0.00 0.00 0.00 0.00 0.01 0.00 0.00 0.00 0.00 0.00 0.00 0.00 0.00 0.00 0.00 0.00 0.00 0.00 0.00 0.00 0.00 0.00 0.00 0.00 0.00 0.00 0.06 0.01 0.00 0.02 0.06 0.15 0.09 0.02 0.01 0.00 0.00
0.00 0.00 0.00 0.00 0.00 0.00 0.00 0.00 0.00 0.00 0.00 0.01 0.00 0.00 0.00 0.00 0.00 0.00 0.00 0.00 0.00 0.00 0.00 0.00 0.00 0.00 0.00 0.00 0.00 0.00 0.00 0.00 0.00 0.00 0.10 0.10 0.02 0.03 0.04 0.00 0.00 0.00 0.00 0.00
0.00 0.00 0.00 0.00 0.00 0.00 0.00 0.00 0.00 0.00 0.00 0.00 0.00 0.00 0.00 0.01 0.00 0.00 0.00 0.00 0.00 0.00 0.00 0.00 0.00 0.00 0.00 0.00 0.00 0.00 0.00 0.00 0.00 0.00 0.05 0.06 0.05 0.00 0.01 0.00 0.00 0.00 0.00 0.00
0.00 0.00 0.00 0.00 0.00 0.00 0.00 0.00 0.00 0.00 0.00 0.00 0.00 0.00 0.00 0.00 0.00 0.00 0.00 0.00 0.00 0.00 0.00 0.00 0.00 0.00 0.00 0.00 0.00 0.00 0.00 0.00 0.00 0.00 0.04 0.02 0.06 0.00 0.00 0.00 0.00 0.00 0.00 0.00
0.00 0.00 0.00 0.00 0.00 0.00 0.00 0.00 0.00 0.00 0.00 0.00 0.00 0.00 0.00 0.00 0.00 0.00 0.00 0.00 0.00 0.00 0.00 0.00 0.00 0.00 0.00 0.00 0.00 0.00 0.00 0.00 0.00 0.00 0.00 0.02 0.08 0.00 0.00 0.00 0.00 0.00 0.00 0.00
0.00 0.00 0.00 0.00 0.00 0.00 0.00 0.00 0.00 0.00 0.00 0.00 0.00 0.00 0.00 0.00 0.00 0.00 0.00 0.00 0.00 0.00 0.00 0.00 0.00 0.00 0.00 0.00 0.00 0.00 0.00 0.00 0.00 0.00 0.00 0.00 0.00 0.00 0.08 0.02 0.00 0.00 0.00 0.00
0.00 0.00 0.00 0.00 0.00 0.00 0.00 0.00 0.00 0.00 0.00 0.00 0.00 0.00 0.00 0.00 0.00 0.00 0.00 0.00 0.00 0.00 0.00 0.00 0.00 0.00 0.00 0.00 0.00 0.00 0.00 0.00 0.00 0.00 0.00 0.00 0.00 0.00 0.00 0.00 0.00 0.00 0.00 0.00
0.00 0.00 0.00 0.00 0.00 0.00 0.00 0.00 0.00 0.00 0.00 0.00 0.00 0.00 0.02 0.01 0.00 0.00 0.00 0.00 0.00 0.00 0.00 0.00 0.00 0.00 0.00 0.00 0.00 0.00 0.00 0.00 0.00 0.00 0.00 0.00 0.00 0.00 0.05 0.02 0.04 0.00 0.01 0.02
0.00 0.00 0.00 0.00 0.00 0.00 0.00 0.00 0.00 0.00 0.00 0.00 0.00 0.00 0.00 0.00 0.00 0.00 0.00 0.00 0.00 0.00 0.00 0.00 0.00 0.00 0.00 0.00 0.00 0.00 0.00 0.00 0.00 0.00 0.00 0.00 0.00 0.01 0.05 0.06 0.06 0.14 0.14 0.06
0.00 0.00 0.00 0.00 0.00 0.00 0.00 0.00 0.00 0.00 0.00 0.00 0.00 0.00 0.00 0.00 0.00 0.00 0.00 0.00 0.00 0.00 0.00 0.00 0.00 0.00 0.00 0.00 0.00 0.00 0.00 0.00 0.00 0.00 0.00 0.00 0.00 0.00 0.13 0.15 0.05 0.09 0.04 0.02
0.00 0.00 0.00 0.00 0.00 0.00 0.00 0.00 0.00 0.00 0.00 0.00 0.00 0.00 0.00 0.00 0.00 0.00 0.00 0.00 0.00 0.00 0.00 0.00 0.00 0.00 0.00 0.00 0.00 0.00 0.00 0.00 0.00 0.00 0.00 0.00 0.00 0.00 0.00 0.00 0.00 0.01 0.01 0.01
0.00 0.00 0.00 0.00 0.00 0.00 0.00 0.00 0.00 0.00 0.00 0.00 0.00 0.00 0.00 0.00 0.00 0.00 0.00 0.00 0.00 0.00 0.00 0.00 0.00 0.00 0.00 0.00 0.00 0.00 0.00 0.00 0.00 0.00 0.00 0.00 0.00 0.00 0.00 0.00 0.00 0.01 0.02 0.01
0.00 0.00 0.00 0.00 0.00 0.00 0.00 0.00 0.00 0.00 0.00 0.00 0.00 0.00 0.00 0.00 0.00 0.00 0.00 0.00 0.00 0.00 0.00 0.00 0.00 0.00 0.00 0.00 0.00 0.00 0.00 0.00 0.00 0.00 0.00 0.00 0.00 0.00 0.00 0.00 0.00 0.00 0.00 0.00
0.00 0.00 0.00 0.00 0.00 0.00 0.00 0.00 0.00 0.00 0.01 0.00 0.00 0.00 0.00 0.00 0.00 0.02 0.01 0.00 0.00 0.00 0.00 0.00 0.00 0.00 0.00 0.00 0.00 0.00 0.00 0.00 0.00 0.00 0.00 0.00 0.04 0.01 0.00 0.00 0.00 0.00 0.00 0.00
0.00 0.00 0.00 0.00 0.00 0.00 0.00 0.00 0.00 0.00 0.02 0.00 0.00 0.00 0.00 0.00 0.00 0.02 0.01 0.00 0.00 0.00 0.00 0.00 0.00 0.00 0.00 0.00 0.00 0.00 0.00 0.00 0.01 0.02 0.03 0.06 0.03 0.04 0.03 0.00 0.00 0.00 0.00 0.00
0.00 0.00 0.00 0.00 0.00 0.00 0.00 0.00 0.00 0.01 0.00 0.00 0.00 0.00 0.00 0.00 0.00 0.00 0.00 0.00 0.00 0.00 0.00 0.00 0.00 0.00 0.00 0.00 0.00 0.00 0.00 0.00 0.00 0.03 0.09 0.08 0.05 0.01 0.01 0.00 0.00 0.00 0.00 0.00
0.00 0.00 0.00 0.00 0.00 0.00 0.00 0.00 0.00 0.00 0.00 0.00 0.00 0.00 0.00 0.00 0.00 0.00 0.00 0.00 0.00 0.00 0.00 0.00 0.00 0.00 0.00 0.00 0.00 0.00 0.00 0.00 0.00 0.00 0.00 0.02 0.06 0.03 0.05 0.04 0.01 0.00 0.00 0.00
0.00 0.00 0.00 0.00 0.00 0.00 0.00 0.00 0.00 0.00 0.00 0.00 0.00 0.00 0.00 0.00 0.00 0.00 0.00 0.00 0.00 0.00 0.00 0.00 0.00 0.00 0.00 0.00 0.00 0.00 0.00 0.00 0.00 0.00 0.00 0.00 0.04 0.07 0.09 0.03 0.02 0.02 0.00 0.00
0.00 0.00 0.00 0.00 0.00 0.00 0.00 0.00 0.00 0.00 0.00 0.00 0.00 0.00 0.00 0.00 0.00 0.00 0.00 0.00 0.00 0.00 0.00 0.00 0.00 0.00 0.00 0.00 0.00 0.00 0.00 0.00 0.00 0.00 0.00 0.02 0.04 0.09 0.61 0.49 0.33 0.23 0.18 0.12
0.00 0.00 0.00 0.00 0.00 0.00 0.00 0.00 0.00 0.00 0.00 0.00 0.00 0.00 0.00 0.00 0.00 0.00 0.00 0.00 0.00 0.00 0.00 0.00 0.00 0.00 0.00 0.00 0.00 0.00 0.00 0.00 0.00 0.00 0.00 0.01 0.02 0.02 0.06 0.08 0.16 0.20 0.25 0.24
MSLP
1004.32 1003.73 1002.76 1002.09 1002.02 1002.69 1002.95 1002.52 1001.99 1001.44 1001.75 1002.02 1001.47 1001.05 1000.40 1000.45 1000.82 1001.89 1001.96 1002.47 1003.66 1004.52 1005.41 1006.22 1006.66 1007.39 1007.79 1008.63 1009.52 1010.61 1011.37 1012.12 1012.84 1013.55 1013.75 1015.00 1015.29 1015.26 1015.08 1014.46 1014.76 1014.91 1015.25 1015.43
1003.41 1003.05 1002.44 1002.19 1002.91 1003.13 1002.68 1002.07 1001.23 1001.15 1001.61 1001.63 1001.17 1001.33 1000.76 1001.09 1000.63 1001.15 1001.77 1001.75 1002.59 1003.55 1004.78 1005.83 1006.31 1006.83 1007.24 1008.06 1009.04 1010.04 1011.03 1011.94 1012.66 1013.17 1013.28 1014.10 1014.85 1014.99 1014.93 1014.48 1014.77 1014.95 1015.06 1015.26
1002.84 1001.85 1002.24 1002.45 1002.76 1002.71 1001.94 1001.17 1000.83 1001.23 1001.31 1000.94 1001.28 1002.48 1002.52 1001.42 1001.40 1001.31 1001.54 1001.68 1001.79 1002.63 1003.72 1004.94 1005.64 1006.13 1006.66 1007.68 1008.59 1009.50 1010.51 1011.68 1012.50 1012.77 1013.33 1013.88 1014.45 1014.93 1015.01 1014.84 1014.36 1014.70 1014.95 1014.97
1002.53 1002.25 1002.73 1002.54 1002.22 1001.96 1000.86 1001.01 1001.28 1001.14 1001.03 1000.29 1000.88 1002.29 1002.34 1001.68 1000.73 1001.23 1001.19 1001.38 1001.42 1001.82 1002.54 1003.71 1004.36 1004.86 1005.77 1006.86 1007.85 1009.05 1010.18 1010.98 1011.93 1012.55 1013.01 1013.62 1013.96 1014.17 1014.09 1014.26 1014.02 1014.09 1014.79 1014.98
1001.68 1002.16 1002.36 1002.14 1001.73 1001.51 1001.24 1001.13 1001.16 1000.88 1000.66 1000.12 1000.85 1002.23 1006.69 1004.10 1000.73 1000.44 1000.31 1000.52 1001.16 1000.98 1001.77 1002.44 1003.83 1003.94 1003.91 1005.03 1006.55 1008.26 1009.65 1010.60 1011.17 1011.93 1012.71 1013.21 1013.79 1013.73 1013.61 1013.48 1013.61 1014.14 1014.43 1014.71
1002.09 1002.08 1001.92 1001.54 1001.42 1001.39 1001.45 1001.01 1000.34 999.80 999.36 999.89 1001.11 1001.73 1004.83 1002.98 1001.25 1000.42 1000.32 1000.33 1000.44 1000.62 1000.99 1001.83 1002.23 1003.27 1004.50 1004.60 1005.67 1007.39 1009.05 1010.11 1010.94 1011.57 1012.54 1012.77 1013.24 1013.42 1012.98 1013.33 1013.89 1014.10 1014.19 1014.35
1001.09 1001.14 1001.42 1001.83 1001.26 1000.90 1000.67 999.81 998.66 998.46 998.57 1000.33 1001.20 1001.32 1001.40 1000.84 1000.75 1001.04 1000.52 1000.53 1000.79 1000.80 1000.99 1001.51 1001.88 1002.24 1004.09 1004.10 1005.84 1007.38 1008.65 1009.85 1010.62 1011.17 1011.58 1012.26 1012.77 1013.26 1013.44 1013.58 1013.74 1013.56 1013.69 1013.83
999.46 1000.10 1000.26 1000.74 1000.91 999.99 999.50 999.15 998.31 998.21 997.88 1000.40 1000.54 999.88 1000.42 999.74 999.88 1000.21 1000.27 1000.59 1001.13 1001.29 1001.29 1001.73 1002.21 1002.71 1003.40 1004.79 1006.18 1007.42 1008.27 1009.36 1010.13 1010.73 1011.24 1011.85 1012.33 1012.53 1013.13 1013.11 1012.77 1013.26 1013.07 1014.00
999.39 999.44 1000.13 1000.39 1000.26 1000.32 999.41 999.25 998.68 998.37 997.85 998.26 1000.87 1001.11 999.57 1000.02 999.20 999.22 999.99 1000.31 1000.81 1001.76 1002.30 1002.51 1002.57 1003.05 1003.95 1005.29 1006.50 1007.48 1007.88 1009.24 1009.88 1010.19 1010.80 1011.27 1011.88 1012.22 1012.48 1012.68 1012.79 1012.98 1012.75 1012.96
1000.25 999.89 999.53 999.49 1000.18 1000.13 999.83 999.28 998.71 998.81 998.63 998.82 999.83 999.20 999.64 999.65 999.29 999.16 1000.04 1000.37 1001.03 1001.56 1002.70 1002.92 1003.09 1003.36 1004.24 1005.20 1006.56 1007.34 1008.24 1009.28 1009.37 1009.63 1010.47 1010.78 1011.51 1011.97 1012.11 1012.11 1012.48 1012.49 1012.36 1012.88
1001.16 1000.42 1000.00 999.74 999.40 998.93 999.47 998.90 998.81 998.31 998.58 998.44 998.77 1000.75 1000.18 1000.09 999.82 999.99 1000.49 1000.91 1001.36 1001.74 1002.49 1003.18 1003.16 1003.87 1004.29 1005.11 1006.29 1007.36 1007.75 1008.57 1008.79 1009.06 1009.40 1010.01 1011.21 1011.47 1012.01 1011.80 1012.35 1012.71 1012.67 1012.74
1001.48 1001.04 999.69 999.06 998.86 999.03 998.92 998.81 998.66 998.20 998.45 998.99 999.46 1000.08 1000.20 1000.52 1000.85 1000.93 1001.13 1001.66 1002.00 1002.25 1002.62 1003.11 1003.41 1003.90 1004.42 1005.18 1006.00 1006.94 1007.73 1008.06 1008.27 1008.36 1008.93 1009.48 1010.19 1010.68 1011.12 1011.60 1011.80 1012.42 1012.69 1012.94
1002.58 1001.74 1000.25 999.17 998.71 999.78 999.58 998.95 998.55 998.34 998.01 998.61 999.51 1000.29 1000.76 1001.10 1001.05 1001.89 1002.07 1002.22 1002.32 1002.62 1003.02 1003.41 1003.84 1004.04 1004.46 1005.19 1006.38 1007.17 1007.76 1008.08 1008.44 1008.36 1008.79 1009.07 1009.58 1009.97 1010.25 1011.16 1011.39 1011.56 1012.36 1012.82
1004.59 1002.80 1001.61 1000.36 999.58 1000.73 1000.25 999.32 998.78 998.82 998.37 998.35 1000.02 1001.90 1002.10 1000.40 1001.56 1002.09 1002.69 1003.07 1002.95 1002.90 1003.29 1003.55 1003.97 1004.47 1004.80 1005.07 1005.72 1006.59 1007.70 1008.13 1008.14 1008.09 1008.37 1008.74 1009.16 1009.44 1009.77 1010.09 1010.67 1011.13 1011.67 1012.29
1003.95 1002.82 1002.30 1001.51 1000.88 1000.37 1000.17 999.90 999.66 999.37 999.13 998.99 998.92 999.45 1000.00 1001.26 1002.06 1002.57 1003.10 1003.80 1003.81 1003.81 1003.83 1004.19 1003.93 1004.34 1005.05 1005.30 1005.62 1006.23 1006.73 1007.39 1007.90 1008.13 1008.26 1008.33 1008.76 1009.28 1009.56 1009.88 1010.49 1011.01 1011.47 1011.66
1003.55 1003.13 1003.05 1002.18 1001.67 1001.05 1000.36 1000.02 999.86 999.68 999.55 999.46 999.47 999.61 1000.40 1002.09 1002.56 1002.92 1003.82 1004.53 1004.59 1004.71 1004.77 1004.81 1004.80 1004.67 1004.79 1005.15 1005.62 1005.91 1006.43 1006.97 1007.41 1007.79 1008.06 1008.37 1008.63 1008.99 1009.29 1010.00 1010.13 1010.74 1011.03 1011.37
1003.99 1003.63 1003.23 1002.13 1001.70 1001.05 1000.17 999.50 999.50 999.55 999.65 999.55 999.48 1000.38 1001.64 1002.63 1003.42 1004.08 1004.64 1005.07 1005.31 1005.36 1005.56 1005.58 1005.36 1005.20 1005.42 1005.08 1005.39 1005.69 1006.13 1006.51 1006.92 1007.31 1007.63 1007.98 1008.38 1008.72 1009.01 1009.46 1009.76 1010.03 1010.36 1010.43
1003.86 1004.16 1003.85 1002.97 1002.37 1000.99 1000.01 1000.42 1000.84 1000.68 1000.35 1000.27 1000.36 1001.56 1002.71 1003.43 1004.61 1005.25 1005.71 1005.77 1006.00 1006.05 1006.01 1005.96 1005.82 1005.78 1005.78 1005.66 1005.26 1005.45 1005.82 1006.36 1006.71 1007.03 1007.16 1007.35 1007.79 1008.20 1008.55 1008.84 1009.17 1009.45 1009.80 1010.01
1003.82 1004.13 1003.81 1003.19 1002.15 1001.07 1000.64 1001.33 1001.88 1001.78 1001.70 1002.23 1002.13 1002.64 1003.78 1004.42 1005.49 1006.11 1006.52 1006.59 1006.70 1006.63 1006.47 1006.31 1006.05 1005.97 1006.05 1006.04 1006.07 1005.96 1005.66 1005.93 1006.34 1006.68 1006.95 1007.06 1007.12 1007.47 1007.89 1008.11 1008.31 1008.65 1009.09 1009.43
1004.20 1004.35 1004.46 1003.44 1002.48 1002.00 1002.33 1003.11 1003.44 1003.30 1003.11 1003.75 1004.10 1004.30 1004.86 1005.07 1005.35 1006.79 1007.33 1007.16 1007.09 1007.06 1007.11 1006.86 1006.39 1005.96 1005.93 1006.12 1006.25 1006.00 1005.89 1005.82 1005.89 1006.06 1006.18 1006.48 1006.75 1006.79 1006.99 1007.31 1007.58 1007.99 1008.36 1008.68
1004.09 1004.56 1003.97 1003.48 1003.24 1002.85 1003.60 1003.90 1004.01 1004.24 1005.35 1005.63 1005.77 1005.76 1005.97 1006.19 1007.12 1007.82 1007.92 1007.65 1007.68 1007.66 1007.46 1007.23 1006.85 1006.58 1006.52 1006.50 1006.59 1006.45 1006.11 1005.62 1005.43 1005.42 1005.44 1005.84 1006.12 1006.46 1006.37 1006.65 1007.09 1007.51 1007.90 1008.02
1004.34 1003.94 1003.50 1003.19 1003.52 1003.79 1004.86 1004.54 1004.81 1005.96 1006.25 1006.61 1006.74 1007.01 1007.22 1007.31 1007.34 1007.62 1007.72 1007.77 1007.89 1007.88 1007.77 1007.60 1007.31 1007.10 1006.93 1006.69 1006.60 1006.57 1006.47 1006.37 1006.16 1005.97 1005.72 1005.61 1005.66 1005.70 1005.72 1006.16 1006.47 1006.86 1007.31 1007.69
1005.07 1004.80 1004.79 1004.73 1004.64 1005.59 1005.64 1005.93 1006.31 1006.59 1006.73 1007.04 1007.41 1007.43 1007.39 1007.38 1007.33 1007.39 1007.48 1007.62 1007.73 1008.00 1008.06 1007.92 1007.70 1007.51 1007.29 1007.07 1006.97 1006.77 1006.74 1006.73 1006.60 1006.28 1005.85 1005.41 1005.50 1005.32 1005.41 1005.81 1006.11 1006.55 1007.05 1007.13
1004.91 1005.33 1005.95 1005.97 1005.26 1005.37 1005.92 1006.59 1006.91 1007.14 1007.18 1007.26 1007.42 1007.57 1007.52 1007.32 1007.23 1007.16 1007.20 1007.25 1007.32 1007.58 1007.75 1007.86 1007.88 1007.74 1007.39 1007.27 1007.13 1006.91 1006.71 1006.62 1006.53 1006.14 1005.74 1005.48 1005.20 1005.18 1005.40 1005.52 1005.71 1006.04 1006.19 1007.05
1005.78 1006.25 1006.54 1006.35 1006.41 1006.26 1006.38 1006.67 1007.32 1007.61 1007.43 1007.46 1007.60 1007.58 1007.41 1007.25 1007.02 1007.03 1007.01 1007.05 1007.12 1007.25 1007.46 1007.62 1007.61 1007.58 1007.45 1007.28 1007.03 1006.78 1006.48 1006.38 1006.36 1005.99 1005.78 1005.50 1005.62 1005.77 1006.01 1006.29 1006.90 1006.48 1007.07 1007.57
1006.11 1006.30 1006.44 1006.31 1006.91 1007.36 1007.30 1007.42 1007.61 1007.65 1007.48 1007.74 1007.56 1007.25 1007.20 1007.18 1007.13 1007.13 1007.03 1007.00 1006.98 1006.98 1007.07 1007.22 1007.26 1007.24 1007.21 1007.07 1006.77 1006.47 1006.25 1006.14 1006.07 1005.71 1005.65 1005.02 1005.46 1005.85 1006.02 1006.54 1007.10 1007.48 1008.06 1009.00
Thickness
5827 5812 5807 5827 5838 5826 5817 5812 5809 5829 5835 5820 5821 5827 5844 5852 5845 5831 5834 5831 5822 5820 5823 5822 5823 5821 5819 5815 5810 5803 5797 5795 5790 5784 5782 5772 5768 5771 5776 5783 5782 5781 5779 5779
5819 5802 5830 5841 5828 5817 5817 5812 5821 5833 5832 5825 5826 5820 5842 5840 5844 5839 5833 5836 5831 5826 5820 5817 5819 5819 5818 5814 5810 5804 5798 5794 5790 5786 5786 5780 5773 5771 5774 5780 5779 5779 5779 5779
5807 5831 5838 5828 5818 5810 5818 5821 5825 5814 5827 5836 5826 5792 5794 5836 5839 5840 5839 5841 5842 5832 5820 5816 5816 5817 5818 5812 5809 5805 5800 5793 5788 5788 5784 5779 5774 5770 5768 5774 5781 5780 5779 5781
5818 5836 5820 5817 5814 5823 5816 5838 5826 5819 5812 5804 5837 5782 5796 5823 5833 5831 5834 5836 5839 5838 5837 5824 5824 5824 5822 5816 5815 5808 5802 5796 5791 5787 5782 5776 5770 5768 5774 5777 5783 5783 5778 5779
5819 5818 5813 5809 5818 5832 5816 5836 5825 5824 5817 5827 5820 5791 5728 5739 5822 5831 5839 5841 5839 5844 5840 5835 5823 5830 5837 5833 5823 5812 5803 5796 5795 5789 5783 5778 5771 5773 5779 5784 5783 5781 5781 5779
5822 5841 5831 5828 5835 5835 5835 5827 5831 5838 5837 5804 5809 5805 5735 5774 5819 5832 5840 5843 5845 5846 5848 5842 5843 5832 5794 5830 5828 5817 5805 5797 5794 5790 5783 5779 5775 5774 5780 5780 5775 5777 5780 5782
5822 5823 5835 5834 5818 5835 5832 5825 5809 5800 5806 5775 5810 5803 5799 5827 5833 5828 5834 5839 5841 5845 5845 5840 5839 5837 5820 5831 5821 5813 5804 5794 5792 5789 5787 5783 5779 5775 5772 5771 5775 5779 5781 5782
5819 5795 5830 5839 5822 5825 5834 5835 5815 5781 5802 5769 5815 5801 5800 5842 5845 5845 5846 5844 5840 5838 5841 5836 5834 5835 5832 5823 5816 5810 5804 5794 5792 5788 5785 5784 5783 5782 5777 5778 5785 5781 5786 5780
5822 5817 5843 5839 5843 5836 5829 5817 5852 5825 5843 5826 5793 5791 5839 5823 5836 5843 5842 5843 5839 5832 5829 5829 5831 5833 5828 5818 5811 5805 5804 5790 5786 5787 5786 5784 5782 5781 5781 5782 5785 5783 5789 5790
5830 5804 5842 5846 5843 5841 5832 5849 5816 5820 5786 5781 5795 5818 5796 5817 5824 5837 5836 5836 5836 5837 5825 5826 5828 5828 5825 5819 5809 5788 5798 5788 5790 5790 5786 5785 5781 5780 5782 5785 5783 5786 5790 5788
5827 5822 5819 5839 5826 5826 5823 5824 5831 5840 5829 5804 5799 5775 5829 5821 5830 5829 5832 5834 5834 5834 5829 5823 5828 5826 5824 5819 5810 5801 5802 5794 5794 5794 5794 5790 5779 5780 5779 5783 5782 5781 5784 5786
5830 5818 5810 5826 5847 5856 5846 5833 5835 5813 5807 5819 5812 5790 5838 5830 5827 5829 5828 5828 5831 5831 5830 5828 5826 5824 5821 5815 5810 5802 5800 5798 5798 5799 5796 5792 5788 5786 5783 5781 5783 5782 5781 5781
5816 5804 5796 5812 5836 5828 5817 5835 5843 5844 5846 5814 5798 5796 5820 5823 5823 5820 5818 5822 5826 5826 5825 5824 5821 5819 5818 5814 5801 5799 5796 5795 5795 5796 5794 5793 5790 5788 5787 5783 5785 5786 5781 5778
5798 5799 5793 5788 5807 5803 5797 5821 5836 5830 5814 5818 5775 5761 5779 5804 5805 5813 5812 5814 5819 5822 5821 5821 5818 5814 5815 5815 5811 5804 5796 5795 5796 5798 5795 5792 5790 5790 5790 5790 5787 5786 5783 5778
5800 5782 5795 5803 5811 5813 5807 5807 5811 5807 5817 5805 5819 5814 5808 5801 5801 5806 5809 5806 5806 5807 5811 5811 5816 5815 5810 5810 5810 5807 5805 5801 5798 5794 5793 5793 5792 5790 5790 5788 5785 5782 5779 5780
5803 5777 5784 5782 5799 5800 5795 5807 5807 5808 5810 5813 5820 5816 5821 5810 5808 5801 5796 5793 5792 5793 5797 5802 5806 5809 5810 5809 5806 5807 5804 5801 5800 5795 5791 5791 5791 5790 5788 5783 5783 5780 5778 5778
5781 5777 5771 5766 5791 5790 5779 5804 5807 5807 5813 5813 5801 5807 5802 5791 5788 5785 5784 5784 5783 5785 5786 5788 5794 5800 5801 5806 5807 5804 5804 5805 5799 5796 5794 5792 5789 5787 5787 5786 5783 5781 5780 5783
5775 5766 5767 5758 5772 5744 5799 5809 5802 5794 5803 5811 5813 5792 5788 5783 5779 5777 5776 5774 5773 5776 5778 5781 5785 5789 5794 5798 5804 5805 5803 5799 5796 5793 5794 5795 5791 5787 5787 5786 5785 5784 5783 5783
5786 5768 5754 5748 5756 5779 5791 5781 5780 5773 5774 5785 5788 5779 5776 5775 5767 5757 5764 5766 5764 5767 5772 5776 5782 5783 5784 5787 5790 5793 5797 5796 5793 5790 5790 5792 5793 5789 5787 5786 5787 5788 5786 5785
5772 5769 5751 5753 5742 5732 5760 5768 5777 5775 5744 5765 5768 5762 5759 5763 5745 5728 5752 5756 5756 5760 5762 5765 5773 5778 5779 5780 5782 5784 5786 5790 5790 5791 5792 5793 5792 5792 5789 5790 5790 5790 5790 5788
5746 5741 5739 5745 5737 5755 5755 5763 5771 5727 5723 5746 5748 5748 5746 5738 5734 5732 5739 5743 5747 5748 5750 5756 5760 5762 5766 5770 5770 5770 5775 5781 5791 5796 5797 5793 5792 5788 5791 5790 5791 5789 5788 5789
5734 5735 5740 5747 5729 5723 5745 5750 5732 5732 5738 5735 5734 5731 5727 5730 5732 5729 5730 5732 5734 5734 5738 5742 5744 5748 5755 5761 5762 5760 5762 5771 5777 5782 5786 5788 5789 5789 5791 5789 5789 5789 5787 5784
5719 5735 5727 5730 5723 5732 5738 5730 5734 5734 5727 5725 5721 5722 5722 5721 5722 5723 5722 5723 5724 5724 5725 5730 5732 5735 5741 5747 5750 5750 5755 5760 5763 5768 5775 5782 5785 5787 5787 5785 5785 5781 5780 5780
5735 5735 5715 5713 5731 5727 5722 5723 5720 5719 5717 5717 5718 5715 5715 5712 5716 5716 5716 5716 5716 5717 5718 5720 5720 5721 5726 5733 5737 5741 5747 5752 5754 5759 5766 5773 5778 5780 5781 5784 5784 5781 5780 5772
5722 5710 5702 5704 5711 5711 5712 5711 5705 5703 5706 5706 5705 5704 5704 5704 5705 5705 5705 5706 5707 5709 5710 5711 5711 5713 5716 5721 5726 5732 5738 5742 5742 5749 5755 5762 5764 5763 5765 5760 5749 5758 5758 5760
5711 5701 5692 5689 5696 5688 5691 5695 5694 5689 5689 5689 5689 5692 5695 5694 5693 5693 5693 5696 5697 5698 5701 5701 5702 5705 5708 5712 5717 5722 5728 5731 5733 5737 5741 5753 5752 5751 5751 5750 5744 5739 5741 5731